Location: Unspecified
(0.0000°N, 0.0000°E)
Time: 15:12:19
(UTC+00:00)

Envisat - Visible Passes

Search period start: 27 January 2022 00:00
Search period end: 06 February 2022 00:00
Orbit: 764 x 766 km, 98.2° (Epoch: 27 January)

Date Brightness Start Highest point End Pass type
(mag) Time Alt. Az. Time Alt. Az. Time Alt. Az.
27 Jan 4.5 03:57:00 10° NE 04:01:34 35° ESE 04:06:09 10° SSE visible
27 Jan 4.6 05:37:54 10° NW 05:40:18 13° WNW 05:42:42 10° WSW visible
28 Jan 6.0 03:22:57 10° E 03:24:50 12° ESE 03:26:42 10° SE visible
28 Jan 3.4 04:58:52 10° N 05:03:33 38° WNW 05:08:13 10° SW visible
29 Jan 3.1 04:21:43 10° NNE 04:26:46 73° ESE 04:31:50 10° S visible
30 Jan 5.0 03:45:53 10° NE 03:50:00 25° ESE 03:54:08 10° SSE visible
30 Jan 4.3 05:25:17 10° NW 05:28:44 19° WNW 05:32:13 10° WSW visible
31 Jan 3.0 04:47:03 10° N 04:51:58 53° WNW 04:56:55 10° SSW visible
01 Feb 3.7 04:10:17 10° NNE 04:15:12 53° ESE 04:20:08 10° S visible
02 Feb 5.5 03:35:00 10° ENE 03:38:27 19° ESE 03:41:54 10° SE visible
02 Feb 3.9 05:13:03 10° NNW 05:17:10 26° WNW 05:21:20 10° SW visible
03 Feb 2.8 04:35:22 10° N 04:40:24 74° WNW 04:45:29 10° SSW visible
04 Feb 4.3 03:58:58 10° NE 04:03:38 38° ESE 04:08:19 10° S visible
04 Feb 4.6 05:40:26 10° NW 05:42:22 12° WNW 05:44:18 10° W visible
05 Feb 5.8 03:24:31 10° ENE 03:26:54 13° ESE 03:29:15 10° SE visible
05 Feb 3.5 05:01:02 10° NNW 05:05:36 35° WNW 05:10:13 10° SW visible
